Regional & State Weather Roundups


233 
ASUS41 KCLE 250012
RWRCLE
OHIO REGIONAL WEATHER ROUNDUP
NATIONAL WEATHER SERVICE WILMINGTON, OH
800 PM EDT WED APR 24 2019
NOTE: "FAIR" INDICATES FEW OR NO CLOUDS BELOW 12,000 FEET WITH NO
SIGNIFICANT WEATHER AND/OR OBSTRUCTIONS TO VISIBILITY.
OHZ001>008-015>018-024>027-034-035-043-044-250100-
   NORTHWEST OHIO
  
CITY           SKY/WX    TMP DP  RH WIND       PRES   REMARKS
DEFIANCE       FAIR      57  35  43 S5        29.92S                  
FINDLAY        MOCLDY    59  38  45 CALM      29.92S                  
TOLEDO EXPRESS FAIR      58  37  45 SE5       29.92F                  
TOLEDO EXEC    FAIR      55  28  35 E9        29.94S                  
LIMA           MOCLDY    57  39  51 SE5       29.91F                  
$$
 
OHZ009>014-019>023-028>033-038-089-250100-
   NORTHEAST OHIO
  
CITY           SKY/WX    TMP DP  RH WIND       PRES   REMARKS
CLE-HOPKINS    CLOUDY    51  36  56 NE5       29.97F                  
CLE-LAKEFRONT  FAIR      49  40  71 NE5       29.94F                  
CUY CO. ARPT   CLOUDY    50  36  57 E5        29.94F                  
LORAIN-ELYRIA  FAIR      50  31  48 N6        29.95R                  
ASHTABULA      FAIR      50  33  52 CALM      29.96S                  
AKRON-CANTON   CLOUDY    60  31  33 CALM      29.93F                  
WOOSTER        FAIR      58  40  51 CALM      29.93S                  
MANSFIELD      CLOUDY    57  41  55 N3        29.93F                  
YOUNGSTOWN     CLOUDY    54  37  52 N8        29.94R                  
$$
 
OHZ042-051>053-060>062-070>072-077>081-250100-
  SOUTHWEST OHIO
  
CITY           SKY/WX    TMP DP  RH WIND       PRES   REMARKS
CINC-COVINGTON CLOUDY    67  48  50 NE8       29.87F                  
CINC-LUNKEN    FAIR      64  48  56 NE7       29.87F                  
HAMILTON       LGT RAIN  62  49  62 NE3       29.90S                  
DAYTON         CLOUDY    59  39  47 E5        29.91F                  
WRIGHT-PAT AFB CLOUDY    60  40  49 NE3       29.90S                  
DAYTON GENERAL MOCLDY    61  44  53 NE6       29.89F                  
WILMINGTON     FAIR      61  43  51 E6        29.88F                  
$$
OHZ036-037-039>041-045>050-054>059-063>069-073>076-082>088-250100-
  CENTRAL AND SOUTHEAST OHIO
  
CITY           SKY/WX    TMP DP  RH WIND       PRES   REMARKS
COLUMBUS       CLOUDY    59  37  44 NE7       29.92F                  
OSU AIRPORT    MOCLDY    57  41  55 NE5       29.92F                  
BOLTON FIELD   FAIR      58  43  56 CALM      29.92F                  
RICKENBACK AFB   N/A    N/A N/A N/A MISG        N/A                   
NEWARK         MOCLDY    61  38  42 CALM      29.92S                  
MARION         CLOUDY    58  36  43 CALM      29.93F                  
LANCASTER      MOCLDY    59  43  55 N3        29.92S                  
ZANESVILLE     CLOUDY    60  40  47 W5        29.94R                  
NEW PHILLY     CLOUDY    61  35  37 CALM      29.93S                  
$$